Location: Newark
(50.8086°N, 4.3114°E)
Time: 10:54:29
(UTC+00:00)

XW-2D - Pass Details

Date: 28 January 2020
Orbit: 507 x 528 km, 97.5° (Epoch: 20 February)

Event Time Altitude Azimuth Distance (km) Brightness Sun altitude
Rises 17:23:24 0° 191° (S) 2,639 ? -9.1°
Reaches altitude 10° 17:25:42 10° 203° (SSW) 1,753 ? -9.4°
Maximum altitude 17:29:02 29° 264° (W) 978 ? -9.9°
Drops below altitude 10° 17:32:22 10° 326° (NNW) 1,756 ? -10.4°
Sets 17:34:40 0° 338° (NNW) 2,644 ? -10.8°
